This is the latest recevied weather packets stored in our database for station/object K4OBI. If no packets are shown the sender has not sent any weather packets the latest 10 day(s).
| Time | Temp. | Humidity | Pressure | Rain* | Wind** | Luminosity | Snow |
|---|---|---|---|---|---|---|---|
| 1777309279 | 18.89° C | 57% | 1026 hPa | 0 mm | - | - | - |
| 1777309211 | 18.89° C | 55% | 1025.9 hPa | 0 mm | - | - | - |
| 1777309153 | 18.89° C | 56% | 1026 hPa | 0 mm | - | - | - |
| 1777309089 | 18.89° C | 54% | 1025.8 hPa | 0 mm | - | - | - |
| 1777309031 | 18.89° C | 54% | 1025.9 hPa | 0 mm | - | - | - |
| 1777308972 | 18.89° C | 54% | 1026 hPa | 0 mm | - | - | - |
| 1777308902 | 19.44° C | 57% | 1026 hPa | 0 mm | - | - | - |
| 1777308843 | 19.44° C | 57% | 1026 hPa | 0 mm | - | - | - |
| 1777308783 | 18.89° C | 57% | 1026 hPa | 0 mm | - | - | - |
| 1777308724 | 18.89° C | 58% | 1026 hPa | 0 mm | - | - | - |
| 1777308666 | 18.89° C | 56% | 1026.1 hPa | 0 mm | - | - | - |
| 1777308599 | 18.89° C | 54% | 1026.1 hPa | 0 mm | - | - | - |
| 1777308535 | 18.89° C | 55% | 1026.1 hPa | 0 mm | - | - | - |
| 1777308476 | 18.89° C | 54% | 1026.1 hPa | 0 mm | - | - | - |
| 1777308415 | 18.89° C | 58% | 1026.2 hPa | 0 mm | - | - | - |
| 1777308360 | 18.89° C | 55% | 1026.1 hPa | 0 mm | - | - | - |
| 1777308291 | 18.89° C | 56% | 1026.2 hPa | 0 mm | - | - | - |
| 1777308232 | 18.89° C | 59% | 1026.1 hPa | 0 mm | - | - | - |
| 1777308171 | 18.89° C | 58% | 1026.2 hPa | 0 mm | - | - | - |
| 1777308112 | 18.89° C | 58% | 1026.2 hPa | 0 mm | - | - | - |
| 1777308054 | 18.89° C | 57% | 1026.2 hPa | 0 mm | - | - | - |
| 1777307984 | 18.89° C | 58% | 1026.1 hPa | 0 mm | - | - | - |
| 1777307923 | 18.89° C | 54% | 1026.2 hPa | 0 mm | - | - | - |
| 1777307864 | 18.89° C | 55% | 1026.2 hPa | 0 mm | - | - | - |
| 1777307804 | 18.89° C | 57% | 1026.2 hPa | 0 mm | - | - | - |
* Rain latest hour (hover to see other rain measurements)
** Current wind speed in m/s (hover to see current wind gust speed)